Location: Wawayanda State Park
(41.1833°N, 74.4333°W)
Time: 22:44:47
(UTC-04:00)

RESURS DK-1 - Visible Passes

Search period start: 24 August 2016 00:00
Search period end: 03 September 2016 00:00
Orbit: 559 x 562 km, 69.9° (Epoch: 24 August)

Date Brightness Start Highest point End Pass type
(mag) Time Alt. Az. Time Alt. Az. Time Alt. Az.
24 Aug 3.6 21:19:18 10° N 21:22:51 26° ENE 21:23:22 26° ENE visible
24 Aug 4.7 22:57:21 10° NW 22:59:18 21° WNW 22:59:18 21° WNW visible
25 Aug 3.1 21:17:54 10° N 21:21:43 35° ENE 21:22:21 33° ENE visible
25 Aug 4.9 22:56:33 10° WNW 22:58:17 17° W 22:58:17 17° W visible
26 Aug 2.7 21:16:33 10° NNW 21:20:35 47° ENE 21:21:23 41° E visible
26 Aug 5.1 22:55:59 10° WNW 22:57:19 13° W 22:57:19 13° W visible
27 Aug 2.3 21:15:16 10° NNW 21:19:25 66° ENE 21:20:28 46° SE visible
28 Aug 2.3 21:14:03 10° NNW 21:18:13 89° WSW 21:19:37 41° SSE visible
29 Aug 2.6 21:12:52 10° NNW 21:16:59 64° WSW 21:18:51 30° S visible
30 Aug 3.3 21:11:46 10° NW 21:15:44 45° WSW 21:18:10 21° S visible
31 Aug 3.9 21:10:45 10° NW 21:14:28 33° WSW 21:17:35 13° SSW visible
01 Sep 4.5 21:09:49 10° NW 21:13:10 24° WSW 21:16:31 10° SSW visible
02 Sep 5.0 21:09:04 10° WNW 21:11:51 18° WSW 21:14:38 10° SSW visible
